FW7820 Weather Reports


Display with metric or nautical units.
time (UTC)temp
F
wind
direction
speed
MPH
gust
MPH
rain 1hr
in
rain 24hr
in
rain mn
in
humidity
%
barometer
mb
20260505003818 67 93 0.0 0.0 0.00 0.00 0.00 70 1013.1
20260505003315 68 93 0.0 0.0 0.00 0.00 0.00 71 1013.1
20260505002811 68 76 0.0 0.0 0.00 0.00 0.00 69 1013.0
20260505002308 68 76 0.0 0.0 0.00 0.00 0.00 68 1013.0
20260505001806 69 83 0.0 0.0 0.00 0.00 0.00 68 1012.9
20260505001303 69 83 0.0 0.0 0.00 0.00 0.00 65 1012.6
20260505000800 69 79 0.0 0.0 0.00 0.00 0.00 66 1012.9
20260505000258 70 87 0.0 0.0 0.00 0.00 0.00 64 1012.9
20260504235754 70 100 0.0 0.0 0.00 0.00 0.00 61 1013.0
20260504235250 71 95 0.0 0.0 0.00 0.00 0.00 64 1012.8
20260504234748 71 87 0.0 0.0 0.00 0.00 0.00 65 1012.9
20260504234245 71 87 0.0 0.0 0.00 0.00 0.00 62 1013.0
20260504233742 72 132 1.0 1.0 0.00 0.00 0.00 60 1013.0
20260504233237 72 107 0.0 1.0 0.00 0.00 0.00 61 1013.2
20260504232734 72 110 0.0 1.0 0.00 0.00 0.00 61 1013.0
20260504232231 72 91 0.0 0.0 0.00 0.00 0.00 62 1013.1
20260504231728 72 90 0.0 0.0 0.00 0.00 0.00 64 1013.0
20260504231224 73 102 0.0 0.0 0.00 0.00 0.00 60 1013.1
20260504230720 73 101 0.0 0.0 0.00 0.00 0.00 63 1013.1
20260504230220 74 48 0.0 0.0 0.00 0.00 0.00 60 1013.2
20260504225718 74 98 1.0 1.0 0.00 0.00 0.00 59 1013.0
20260504225214 74 87 0.0 0.0 0.00 0.00 0.00 60 1013.4
20260504224711 74 97 0.0 0.0 0.00 0.00 0.00 57 1013.3
20260504224209 75 66 0.0 0.0 0.00 0.00 0.00 56 1013.2
20260504223704 75 85 0.0 0.0 0.00 0.00 0.00 56 1013.3
20260504223200 76 100 2.0 2.0 0.00 0.00 0.00 54 1013.6
20260504222657 76 114 0.0 0.0 0.00 0.00 0.00 56 1013.6
20260504222154 75 109 0.0 0.0 0.00 0.00 0.00 54 1013.4
20260504221651 75 93 0.0 0.0 0.00 0.00 0.00 55 1013.5
20260504221148 75 109 0.0 0.0 0.00 0.00 0.00 55 1013.6
20260504220644 76 104 0.0 0.0 0.00 0.00 0.00 54 1013.6
20260504220142 76 98 0.0 0.0 0.00 0.00 0.00 56 1013.8
20260504215638 76 103 0.0 1.0 0.00 0.00 0.00 55 1013.8
20260504215136 76 99 0.0 1.0 0.00 0.00 0.00 55 1013.5
20260504214632 75 108 0.0 0.0 0.00 0.00 0.00 53 1013.6
20260504214128 75 106 1.0 1.0 0.00 0.00 0.00 57 1013.8
20260504213625 76 120 0.0 0.0 0.00 0.00 0.00 52 1013.5
20260504213122 76 150 1.0 1.0 0.00 0.00 0.00 51 1013.7
20260504212618 76 68 0.0 0.0 0.00 0.00 0.00 54 1013.8
20260504212115 76 85 0.0 0.0 0.00 0.00 0.00 52 1013.9
20260504211612 76 74 0.0 0.0 0.00 0.00 0.00 53 1013.7
20260504211109 76 100 1.0 1.0 0.00 0.00 0.00 51 1013.9
20260504210607 76 209 0.0 0.0 0.00 0.00 0.00 52 1013.8
20260504205601 77 94 0.0 0.0 0.00 0.00 0.00 51 1013.9
20260504205058 77 87 0.0 0.0 0.00 0.00 0.00 50 1014.0
20260504204556 78 117 0.0 0.0 0.00 0.00 0.00 47 1014.2
20260504204055 78 84 0.0 1.0 0.00 0.00 0.00 46 1014.0
20260504203553 79 137 1.0 1.0 0.00 0.00 0.00 45 1014.2
20260504203050 80 1 0.0 0.0 0.00 0.00 0.00 49 1014.1
20260504202545 79 233 0.0 1.0 0.00 0.00 0.00 48 1014.4
20260504202042 79 188 1.0 2.0 0.00 0.00 0.00 50 1014.5
20260504201539 79 168 0.0 0.0 0.00 0.00 0.00 46 1014.4
20260504201037 79 228 1.0 1.0 0.00 0.00 0.00 51 1014.7
20260504200533 79 87 0.0 0.0 0.00 0.00 0.00 48 1014.9
20260504200030 79 137 0.0 0.0 0.00 0.00 0.00 50 1014.9
20260504195526 79 156 1.0 1.0 0.00 0.00 0.00 49 1014.9
20260504195023 79 77 0.0 0.0 0.00 0.00 0.00 49 1015.0
20260504194519 78 98 1.0 1.0 0.00 0.00 0.00 49 1015.1
20260504194015 79 107 1.0 1.0 0.00 0.00 0.00 49 1015.2
20260504193512 79 72 0.0 0.0 0.00 0.00 0.00 49 1015.3
20260504193011 80 74 0.0 0.0 0.00 0.00 0.00 49 1015.5
20260504192508 80 107 1.0 1.0 0.00 0.00 0.00 47 1015.4
20260504192007 80 284 1.0 1.0 0.00 0.00 0.00 50 1015.5
20260504191504 80 97 1.0 1.0 0.00 0.00 0.00 45 1015.2
20260504190959 80 10 1.0 1.0 0.00 0.00 0.00 47 1015.3
20260504190455 79 170 1.0 1.0 0.00 0.00 0.00 48 1015.5
20260504185952 79 294 0.0 1.0 0.00 0.00 0.00 49 1015.5
20260504185449 78 93 0.0 0.0 0.00 0.00 0.00 50 1015.4
20260504184945 79 277 3.0 3.0 0.00 0.00 0.00 47 1015.5
20260504184441 79 330 1.0 2.0 0.00 0.00 0.00 49 1015.5
20260504183937 79 131 0.0 0.0 0.00 0.00 0.00 50 1015.7
20260504183434 80 356 3.0 3.0 0.00 0.00 0.00 46 1015.6
20260504182932 79 355 0.0 1.0 0.00 0.00 0.00 49 1015.6
20260504182429 79 201 1.0 1.0 0.00 0.00 0.00 48 1015.7
20260504181926 80 66 0.0 1.0 0.00 0.00 0.00 46 1016.0
20260504181423 80 105 0.0 0.0 0.00 0.00 0.00 46 1015.9
20260504180922 79 79 0.0 1.0 0.00 0.00 0.00 49 1016.0
20260504180420 79 94 0.0 0.0 0.00 0.00 0.00 48 1016.0
20260504175918 78 0 0.0 0.0 0.00 0.00 0.00 50 1016.3
20260504175415 79 313 2.0 2.0 0.00 0.00 0.00 45 1016.1
20260504174913 79 137 1.0 1.0 0.00 0.00 0.00 52 1016.2
20260504174410 78 82 0.0 0.0 0.00 0.00 0.00 49 1016.2
20260504173907 78 297 0.0 0.0 0.00 0.00 0.00 51 1016.3
20260504173403 78 65 0.0 0.0 0.00 0.00 0.00 53 1016.5
20260504172901 79 78 1.0 1.0 0.00 0.00 0.00 45 1016.4
20260504172357 78 66 0.0 0.0 0.00 0.00 0.00 50 1016.6
20260504171853 78 270 1.0 1.0 0.00 0.00 0.00 49 1016.6
20260504171350 77 153 0.0 0.0 0.00 0.00 0.00 50 1016.8
20260504170848 77 15 1.0 2.0 0.00 0.00 0.00 49 1016.9
20260504170344 76 98 1.0 1.0 0.00 0.00 0.00 50 1016.9
20260504160303 76 55 0.0 0.0 0.00 0.00 0.00 58 1017.3
20260504150728 74 72 0.0 0.0 0.00 0.00 0.00 61 1017.5
20260504150225 73 36 1.0 2.0 0.00 0.00 0.00 61 1017.6
20260504141154 69 88 0.0 0.0 0.00 0.00 0.00 73 1017.7
20260504140651 69 82 0.0 0.0 0.00 0.00 0.00 77 1017.6
20260504140146 68 75 0.0 0.0 0.00 0.00 0.00 79 1017.3
20260504130614 61 79 0.0 1.0 0.00 0.00 0.00 88 1017.5
20260504130112 61 78 0.0 0.0 0.00 0.00 0.00 89 1017.3
20260504110503 50 62 0.0 0.0 0.00 0.00 0.00 99 1017.0
20260504100419 50 62 0.0 0.0 0.00 0.00 0.00 99 1016.6
20260504081812 50 62 0.0 0.0 0.00 0.00 0.00 99 1017.2
20260504081309 50 61 0.0 0.0 0.00 0.00 0.00 99 1017.4
20260504080804 50 61 0.0 0.0 0.00 0.00 0.00 99 1017.2
20260504080301 50 61 0.0 0.0 0.00 0.00 0.00 99 1017.3
20260504070229 51 61 0.0 0.0 0.00 0.00 0.00 99 1017.6
20260504060149 52 61 0.0 0.0 0.00 0.00 0.00 99 1018.5
20260504050617 53 61 0.0 0.0 0.00 0.00 0.00 99 1018.4
20260504050115 53 61 0.0 0.0 0.00 0.00 0.00 99 1018.4
20260504045612 53 61 0.0 0.0 0.00 0.00 0.00 99 1018.4
20260504045106 53 61 0.0 0.0 0.00 0.00 0.00 98 1018.4
20260504044604 53 61 0.0 0.0 0.00 0.00 0.00 98 1018.7
20260504044101 53 61 0.0 0.0 0.00 0.00 0.00 98 1018.6
20260504043558 53 61 0.0 0.0 0.00 0.00 0.00 98 1018.6
20260504043055 53 61 0.0 0.0 0.00 0.00 0.00 98 1018.5
20260504042552 54 61 0.0 0.0 0.00 0.00 0.00 97 1018.5
20260504042049 54 61 0.0 0.0 0.00 0.00 0.00 97 1018.6
20260504041545 53 61 0.0 0.0 0.00 0.00 0.00 96 1018.7
20260504041041 54 61 0.0 0.0 0.00 0.00 0.00 96 1018.6
20260504040539 54 61 0.0 0.0 0.00 0.00 0.00 96 1018.8
20260504040035 54 61 0.0 0.0 0.00 0.00 0.00 95 1018.7
20260504035532 54 61 0.0 0.0 0.00 0.00 0.00 95 1018.7
20260504035029 54 61 0.0 0.0 0.00 0.00 0.00 94 1018.6
20260504034526 54 61 0.0 0.0 0.00 0.00 0.00 94 1018.7
20260504034023 54 61 0.0 0.0 0.00 0.00 0.00 93 1018.8
20260504033521 54 61 0.0 0.0 0.00 0.00 0.00 92 1018.7
20260504033018 54 61 0.0 0.0 0.00 0.00 0.00 91 1018.8
20260504032515 54 61 0.0 0.0 0.00 0.00 0.00 91 1018.4
20260504032012 55 61 0.0 0.0 0.00 0.00 0.00 91 1018.7
20260504031509 55 61 0.0 0.0 0.00 0.00 0.00 91 1018.8
20260504031005 55 61 0.0 0.0 0.00 0.00 0.00 90 1018.6
20260504030503 55 61 0.0 0.0 0.00 0.00 0.00 90 1018.7
20260504025958 55 61 0.0 0.0 0.00 0.00 0.00 90 1018.5
20260504025455 55 61 0.0 0.0 0.00 0.00 0.00 89 1018.6
20260504024952 56 61 0.0 0.0 0.00 0.00 0.00 89 1018.5
20260504024449 56 61 0.0 0.0 0.00 0.00 0.00 88 1018.5
20260504023946 56 61 0.0 0.0 0.00 0.00 0.00 88 1018.3
20260504023443 56 61 0.0 0.0 0.00 0.00 0.00 88 1018.5
20260504022938 56 61 0.0 0.0 0.00 0.00 0.00 88 1018.3
20260504022435 56 61 0.0 0.0 0.00 0.00 0.00 87 1018.1
20260504021931 56 61 0.0 0.0 0.00 0.00 0.00 87 1018.3
20260504021429 57 61 0.0 0.0 0.00 0.00 0.00 87 1018.2
20260504020926 57 61 0.0 0.0 0.00 0.00 0.00 86 1018.3
20260504020423 57 61 0.0 0.0 0.00 0.00 0.00 85 1017.8
20260504015919 57 61 0.0 0.0 0.00 0.00 0.00 85 1018.1
20260504015415 57 61 0.0 0.0 0.00 0.00 0.00 85 1017.8
20260504014911 58 61 0.0 0.0 0.00 0.00 0.00 85 1017.7
20260504014407 58 61 0.0 0.0 0.00 0.00 0.00 84 1017.7
20260504013904 58 61 0.0 0.0 0.00 0.00 0.00 83 1017.4
20260504013403 58 61 0.0 0.0 0.00 0.00 0.00 83 1017.7
20260504012858 59 61 0.0 0.0 0.00 0.00 0.00 81 1017.4
20260504012357 59 61 0.0 0.0 0.00 0.00 0.00 80 1017.5
20260504011854 59 61 0.0 0.0 0.00 0.00 0.00 80 1017.4
20260504011350 59 61 0.0 0.0 0.00 0.00 0.00 79 1017.5
20260504010846 60 61 0.0 0.0 0.00 0.00 0.00 80 1017.6
20260504010342 60 61 0.0 0.0 0.00 0.00 0.00 78 1017.6
20260504005839 60 61 0.0 0.0 0.00 0.00 0.00 77 1017.5
20260504005336 61 61 0.0 0.0 0.00 0.00 0.00 79 1017.4
20260504004833 61 61 0.0 0.0 0.00 0.00 0.00 76 1017.5
20260504004331 62 61 0.0 0.0 0.00 0.00 0.00 77 1017.4